Durango, CO

1:39 AM MDT on October 19, 2017 (GMT -0600)
Durango-La Plata County

Weather History for KDRO - August, 2013

Change the Weather History Date:

Monday, August 26, 2013

  Actual Average Record
Temperature  
Mean Temperature 68 °F 65 °F  
Max Temperature 80 °F 81 °F 92 °F (1985)
Min Temperature 56 °F 49 °F 34 °F (1973)
Degree Days  
Heating Degree Days 0 1  
Month to date heating degree days 13 9  
Since 1 June heating degree days 53 134  
Since 1 July heating degree days 13 19  
Cooling Degree Days 3 1  
Month to date cooling degree days 74 80  
Year to date cooling degree days 320 231  
Since 1 June cooling degree days 320 230  
Growing Degree Days 18 (Base 50)    
Moisture  
Dew Point 56 °F    
Average Humidity 69    
Maximum Humidity 100    
Minimum Humidity 37    
Precipitation  
Precipitation 0.02 in 0.08 in 0.58 in (2008)
Month to date precipitation 2.35 1.77  
Year to date precipitation 8.19 9.56  
Sea Level Pressure  
Sea Level Pressure 30.18 in    
Wind  
Wind Speed 2 mph (East)    
Max Wind Speed 13 mph    
Max Gust Speed 16 mph    
Visibility 9 miles    
Events Rain    
T = Trace of Precipitation, MM = Missing Value Source: NWS Daily Summary

Daily Weather History Graph

Daily Weather History Graph

Search for Another Location

Airport or City:

Trip Planner

Search our weather history database for the weather conditions in past years. The results will help you decide how hot, cold, wet, or windy it might be!

Date:

Astronomy

Aug. 26, 2013 Rise Set
Actual Time 6:36 AM MDT 7:47 PM MDT
Civil Twilight 6:10 AM MDT 8:14 PM MDT
Nautical Twilight 5:37 AM MDT 8:46 PM MDT
Astronomical Twilight 5:04 AM MDT 9:19 PM MDT
Moon 11:10 PM MDT (8/26) 12:32 PM MDT (8/26)
Length of Visible Light 14h 04m
Length of Day
13h 10m
Waning Gibbous, 66% of the Moon is Illuminated
Aug 26
Waning Gibbous
Aug 28
Last Quarter
Sep 5
New
Sep 12
First Quarter
Sep 19
Full

Hourly Weather History & Observations

Time (MDT) Temp. Dew Point Humidity Pressure Visibility Wind Dir Wind Speed Gust Speed Precip Events Conditions
12:53 AM 60.1 °F 57.9 °F 93% 30.20 in 10.0 mi ENE 4.6 mph - 0.00 in Rain Light Rain
1:37 AM 60.8 °F 57.2 °F 88% 30.42 in 10.0 mi East 3.5 mph - N/A   Overcast
1:53 AM 60.1 °F 57.9 °F 93% 30.20 in 10.0 mi East 3.5 mph - N/A   Overcast
2:53 AM 60.1 °F 59.0 °F 96% 30.18 in 10.0 mi East 6.9 mph - 0.01 in   Overcast
3:53 AM 59.0 °F 57.9 °F 96% 30.21 in 10.0 mi ENE 5.8 mph - 0.01 in Rain Light Rain
4:53 AM 57.9 °F 57.0 °F 97% 30.19 in 10.0 mi Calm Calm - 0.00 in   Partly Cloudy
5:53 AM 57.9 °F 57.0 °F 97% 30.21 in 10.0 mi Calm Calm - N/A   Mostly Cloudy
6:48 AM 57.2 °F 55.4 °F 94% 30.40 in 1.8 mi Calm Calm - N/A   Partly Cloudy
6:53 AM 57.0 °F 57.0 °F 100% 30.22 in 1.2 mi Calm Calm - N/A   Partly Cloudy
6:57 AM 57.2 °F 57.2 °F 100% 30.41 in 2.0 mi Calm Calm - N/A   Partly Cloudy
7:05 AM 57.2 °F 55.4 °F 94% 30.41 in 8.0 mi Calm Calm - N/A   Clear
7:14 AM 57.2 °F 57.2 °F 100% 30.41 in 5.0 mi Calm Calm - N/A   Partly Cloudy
7:53 AM 59.0 °F 57.9 °F 96% 30.23 in 10.0 mi Calm Calm - N/A   Clear
8:53 AM 63.0 °F 57.9 °F 84% 30.21 in 10.0 mi Calm Calm - N/A   Clear
9:53 AM 66.9 °F 57.0 °F 70% 30.20 in 10.0 mi Calm Calm - N/A   Clear
10:53 AM 71.1 °F 55.9 °F 59% 30.19 in 10.0 mi SE 6.9 mph - N/A   Clear
11:53 AM 72.0 °F 55.0 °F 55% 30.16 in 10.0 mi Variable 3.5 mph - N/A   Scattered Clouds
12:53 PM 73.0 °F 57.0 °F 57% 30.14 in 10.0 mi Calm Calm - N/A   Overcast
1:53 PM 73.9 °F 55.9 °F 53% 30.13 in 10.0 mi Calm Calm - N/A   Mostly Cloudy
2:53 PM 75.9 °F 55.0 °F 48% 30.10 in 10.0 mi Variable 3.5 mph - N/A   Scattered Clouds
3:53 PM 78.1 °F 53.1 °F 42% 30.07 in 10.0 mi Variable 3.5 mph - N/A   Mostly Cloudy
4:53 PM 78.1 °F 51.1 °F 39% 30.05 in 10.0 mi Variable 3.5 mph - N/A   Clear
5:53 PM 79.0 °F 50.0 °F 36% 30.03 in 10.0 mi Calm Calm - N/A   Clear
6:53 PM 79.0 °F 51.1 °F 38% 30.03 in 10.0 mi Calm Calm - N/A   Clear
7:53 PM 73.9 °F 53.1 °F 48% 30.04 in 10.0 mi West 5.8 mph - N/A   Mostly Cloudy
8:53 PM 68.0 °F 55.0 °F 63% 30.07 in 10.0 mi West 4.6 mph - N/A   Clear
9:53 PM 66.0 °F 55.9 °F 70% 30.06 in 10.0 mi North 5.8 mph - N/A   Clear
10:53 PM 64.0 °F 55.9 °F 75% 30.07 in 10.0 mi Calm Calm - N/A   Partly Cloudy
11:53 PM 62.1 °F 55.9 °F 80% 30.07 in 10.0 mi Calm Calm - N/A   Clear